,,Stat6,,Stat2,,Stat8,,Stat9,,Stat10,,Wind1,,Wind1,
time,status,PA1M_AVG,status,PR1M_SUM,status,RH1M_AVG,status,SR1M_AVG,status,TA1M_AVG,status,W1dAve1m,status,W1sAve1m,
2007-04-01, 00:00:00,VALID,919.07,VALID,0,VALID,100,VALID,0,VALID,20.4519,VALID,44,VALID,1.09165,
2007-04-01, 00:01:00,VALID,919.048,VALID,0,VALID,100,VALID,0.0339617,VALID,20.4391,VALID,39,VALID,1.1974,
2007-04-01, 00:02:00,VALID,919.032,VALID,0,VALID,100,VALID,0.0169808,VALID,20.367,VALID,32,VALID,1.24473,
2007-04-01, 00:03:00,VALID,919.02,VALID,0,VALID,100,VALID,0.0339617,VALID,20.3321,VALID,27,VALID,0.752486,
2007-04-01, 00:04:00,VALID,919.009,VALID,0,VALID,100,VALID,0.0339617,VALID,20.2993,VALID,25,VALID,0.788889,
2007-04-01, 00:05:00,VALID,918.983,VALID,0,VALID,100,VALID,0.0169808,VALID,20.2669,VALID,26,VALID,0.902344,
2007-04-01, 00:06:00,VALID,918.974,VALID,0,VALID,100,VALID,0,VALID,20.2412,VALID,30,VALID,0.955357,
2007-04-01, 00:07:00,VALID,918.95,VALID,0,VALID,100,VALID,0.0339617,VALID,20.2245,VALID,10,VALID,0.756669,
2007-04-01, 00:08:00,VALID,918.939,VALID,0,VALID,100,VALID,0.0339617,VALID,20.218,VALID,15,VALID,0.915104,
2007-04-01, 00:09:00,VALID,918.928,VALID,0,VALID,100,VALID,0.0339617,VALID,20.179,VALID,2,VALID,0.606424,
2007-04-01, 00:10:00,VALID,918.911,VALID,0,VALID,100,VALID,0.0339617,VALID,20.179,VALID,23,VALID,0.473586,
2007-04-01, 00:11:00,VALID,918.891,VALID,0,VALID,100,VALID,0.0849042,VALID,20.1628,VALID,345,VALID,0.586648,
2007-04-01, 00:12:00,VALID,918.89,VALID,0,VALID,100,VALID,0.0169808,VALID,20.1304,VALID,335,VALID,0.376563,
2007-04-01, 00:13:00,VALID,918.87,VALID,0,VALID,100,VALID,0.0339617,VALID,20.1144,VALID,5,VALID,0.635298,
2007-04-01, 00:14:00,VALID,918.86,VALID,0,VALID,100,VALID,0.0169808,VALID,20.1209,VALID,31,VALID,0.509233,
2007-04-01, 00:15:00,VALID,918.842,VALID,0,VALID,100,VALID,-0.0169808,VALID,20.1503,VALID,28,VALID,0.805414,
2007-04-01, 00:16:00,VALID,918.823,VALID,0,VALID,100,VALID,0,VALID,20.173,VALID,29,VALID,0.698765,
2007-04-01, 00:17:00,VALID,918.81,VALID,0,VALID,100,VALID,0.0339617,VALID,20.1795,VALID,43,VALID,0.734175,
2007-04-01, 00:18:00,VALID,918.816,VALID,0,VALID,100,VALID,0,VALID,20.173,VALID,45,VALID,0.447856,
2007-04-01, 00:19:00,VALID,918.781,VALID,0,VALID,100,VALID,0.0509425,VALID,20.1723,VALID,44,VALID,0.245593,
2007-04-01, 00:20:00,VALID,918.786,VALID,0,VALID,100,VALID,0,VALID,20.173,VALID,20,VALID,0.495508,
2007-04-01, 00:21:00,VALID,918.769,VALID,0,VALID,100,VALID,0,VALID,20.1271,VALID,27,VALID,0.768787,
2007-04-01, 00:22:00,VALID,918.758,VALID,0,VALID,100,VALID,0,VALID,20.1209,VALID,16,VALID,0.542882,
2007-04-01, 00:23:00,VALID,918.757,VALID,0,VALID,100,VALID,0.0169808,VALID,20.1271,VALID,15,VALID,0.0870808,
2007-04-01, 00:24:00,VALID,918.736,VALID,0,VALID,100,VALID,0.0169808,VALID,20.1501,VALID,21,VALID,0.803977,
2007-04-01, 00:25:00,VALID,918.746,VALID,0,VALID,100,VALID,0.0169808,VALID,20.1633,VALID,41,VALID,0.915591,
2007-04-01, 00:26:00,VALID,918.742,VALID,0,VALID,100,VALID,0.0339617,VALID,20.1755,VALID,43,VALID,0.417259,
2007-04-01, 00:27:00,VALID,918.726,VALID,0,VALID,100,VALID,0.0169808,VALID,20.1625,VALID,41,VALID,0.302083,
2007-04-01, 00:28:00,VALID,918.708,VALID,0,VALID,100,VALID,0.0339617,VALID,20.1403,VALID,41,VALID,0.146621,
2007-04-01, 00:29:00,VALID,918.683,VALID,0,VALID,100,VALID,-0.0679233,VALID,20.1116,VALID,342,VALID,0.468192,
2007-04-01, 00:30:00,VALID,918.669,VALID,0,VALID,100,VALID,-0.0509425,VALID,20.08,VALID,319,VALID,0.120206,
2007-04-01, 00:31:00,VALID,918.649,VALID,0,VALID,100,VALID,-0.0679233,VALID,20.0667,VALID,319,VALID,0.233594,
2007-04-01, 00:32:00,VALID,918.62,VALID,0,VALID,100,VALID,-0.0679233,VALID,20.057,VALID,345,VALID,0.287016,
2007-04-01, 00:33:00,VALID,918.592,VALID,0,VALID,100,VALID,-0.0679233,VALID,20.0602,VALID,23,VALID,0.488991,
2007-04-01, 00:34:00,VALID,918.563,VALID,0,VALID,100,VALID,-0.101885,VALID,20.0932,VALID,23,VALID,0.236806,
2007-04-01, 00:35:00,VALID,918.553,VALID,0,VALID,100,VALID,-0.0849042,VALID,20.1254,VALID,23,VALID,0.0025436,
2007-04-01, 00:36:00,VALID,918.538,VALID,0,VALID,100,VALID,-0.0849042,VALID,20.1124,VALID,23,VALID,0.00106534,
2007-04-01, 00:37:00,VALID,918.534,VALID,0,VALID,100,VALID,-0.101885,VALID,20.0957,VALID,23,VALID,0.112216,
2007-04-01, 00:38:00,VALID,918.549,VALID,0,VALID,100,VALID,-0.118866,VALID,20.1097,VALID,23,VALID,0.175145,
2007-04-01, 00:39:00,VALID,918.54,VALID,0,VALID,100,VALID,-0.101885,VALID,20.1454,VALID,23,VALID,0.483854,
2007-04-01, 00:40:00,VALID,918.541,VALID,0,VALID,100,VALID,-0.101885,VALID,20.1648,VALID,23,VALID,0.39375,
2007-04-01, 00:41:00,VALID,918.535,VALID,0,VALID,100,VALID,-0.101885,VALID,20.1903,VALID,23,VALID,0.326172,
2007-04-01, 00:42:00,VALID,918.533,VALID,0,VALID,100,VALID,-0.118866,VALID,20.217,VALID,23,VALID,0.0234375,
2007-04-01, 00:43:00,VALID,918.511,VALID,0,VALID,100,VALID,-0.0849042,VALID,20.2227,VALID,23,VALID,0,
2007-04-01, 00:44:00,VALID,918.491,VALID,0,VALID,100,VALID,0,VALID,20.218,VALID,23,VALID,0,
2007-04-01, 00:45:00,VALID,918.475,VALID,0,VALID,100,VALID,-0.0169808,VALID,20.2182,VALID,23,VALID,0.0196221,
2007-04-01, 00:46:00,VALID,918.453,VALID,0,VALID,100,VALID,0.0169808,VALID,20.218,VALID,24,VALID,0.546342,
2007-04-01, 00:47:00,VALID,918.454,VALID,0,VALID,100,VALID,0.0169808,VALID,20.1982,VALID,34,VALID,0.552344,
2007-04-01, 00:48:00,VALID,918.448,VALID,0,VALID,100,VALID,0,VALID,20.1952,VALID,34,VALID,0.17242,
2007-04-01, 00:49:00,VALID,918.458,VALID,0,VALID,100,VALID,0,VALID,20.1915,VALID,34,VALID,0.00967262,
2007-04-01, 00:50:00,VALID,918.445,VALID,0,VALID,100,VALID,0,VALID,20.2023,VALID,34,VALID,0,
2007-04-01, 00:51:00,VALID,918.437,VALID,0,VALID,100,VALID,-0.0169808,VALID,20.1952,VALID,34,VALID,0,
2007-04-01, 00:52:00,VALID,918.42,VALID,0,VALID,100,VALID,0.0509425,VALID,20.1855,VALID,34,VALID,0.128534,
2007-04-01, 00:53:00,VALID,918.4,VALID,0,VALID,100,VALID,0.0169808,VALID,20.1793,VALID,34,VALID,0.10404,
2007-04-01, 00:54:00,VALID,918.368,VALID,0,VALID,100,VALID,0.0169808,VALID,20.1628,VALID,34,VALID,0.0542869,
2007-04-01, 00:55:00,VALID,918.342,VALID,0,VALID,100,VALID,0.0169808,VALID,20.1361,VALID,34,VALID,0,
2007-04-01, 00:56:00,VALID,918.318,VALID,0,VALID,100,VALID,0.0509425,VALID,20.1528,VALID,34,VALID,0,
2007-04-01, 00:57:00,VALID,918.299,VALID,0,VALID,100,VALID,0.0339617,VALID,20.1333,VALID,34,VALID,0.0397727,
2007-04-01, 00:58:00,VALID,918.28,VALID,0,VALID,100,VALID,0.0169808,VALID,20.1146,VALID,34,VALID,0.0842634,
2007-04-01, 00:59:00,VALID,918.265,VALID,0,VALID,100,VALID,0,VALID,20.0719,VALID,309,VALID,0.440696,
2007-04-01, 01:00:00,VALID,918.258,VALID,0,VALID,100,VALID,0,VALID,20.043,VALID,307,VALID,0.227134,
2007-04-01, 01:01:00,VALID,918.232,VALID,0,VALID,100,VALID,0,VALID,20.0335,VALID,307,VALID,0.153088,
2007-04-01, 01:02:00,VALID,918.212,VALID,0,VALID,100,VALID,0,VALID,20.0173,VALID,307,VALID,0.0885417,
2007-04-01, 01:03:00,VALID,918.2,VALID,0,VALID,100,VALID,0.0169808,VALID,20.0105,VALID,307,VALID,0,
2007-04-01, 01:04:00,VALID,918.207,VALID,0,VALID,100,VALID,0,VALID,20.0133,VALID,307,VALID,0.0283918,
2007-04-01, 01:05:00,VALID,918.209,VALID,0,VALID,100,VALID,0,VALID,20.007,VALID,307,VALID,0.0481771,
2007-04-01, 01:06:00,VALID,918.215,VALID,0,VALID,100,VALID,0.0169808,VALID,19.9973,VALID,306,VALID,0.370393,
2007-04-01, 01:07:00,VALID,918.224,VALID,0,VALID,100,VALID,0.0169808,VALID,19.9943,VALID,306,VALID,0.454723,
2007-04-01, 01:08:00,VALID,918.235,VALID,0,VALID,100,VALID,0,VALID,19.9813,VALID,256,VALID,0.37221,
2007-04-01, 01:09:00,VALID,918.219,VALID,0,VALID,100,VALID,0.0169808,VALID,19.9651,VALID,219,VALID,0.180273,
2007-04-01, 01:10:00,VALID,918.22,VALID,0,VALID,100,VALID,0,VALID,19.9783,VALID,219,VALID,0.228743,
2007-04-01, 01:11:00,VALID,918.217,VALID,0,VALID,100,VALID,-0.0169808,VALID,19.9781,VALID,219,VALID,0.213542,
2007-04-01, 01:12:00,VALID,918.212,VALID,0,VALID,100,VALID,-0.0169808,VALID,19.9783,VALID,219,VALID,0.207386,
2007-04-01, 01:13:00,VALID,918.197,VALID,0,VALID,100,VALID,-0.0169808,VALID,19.9816,VALID,219,VALID,0.158612,
2007-04-01, 01:14:00,VALID,918.195,VALID,0,VALID,100,VALID,0,VALID,19.9714,VALID,219,VALID,0.126202,
2007-04-01, 01:15:00,VALID,918.216,VALID,0,VALID,100,VALID,0.0169808,VALID,19.9719,VALID,219,VALID,0.396439,
2007-04-01, 01:16:00,VALID,918.21,VALID,0,VALID,100,VALID,0.0849042,VALID,19.9554,VALID,219,VALID,0.208333,
2007-04-01, 01:17:00,VALID,918.217,VALID,0,VALID,100,VALID,0.0169808,VALID,19.9459,VALID,219,VALID,0.15024,
2007-04-01, 01:18:00,VALID,918.231,VALID,0,VALID,100,VALID,0.0849042,VALID,19.9614,VALID,219,VALID,0.0230655,
2007-04-01, 01:19:00,VALID,918.222,VALID,0,VALID,100,VALID,0.0339617,VALID,19.9621,VALID,219,VALID,0.000190549,
2007-04-01, 01:20:00,VALID,918.221,VALID,0,VALID,100,VALID,0.0339617,VALID,19.9454,VALID,219,VALID,0.298209,
2007-04-01, 01:21:00,VALID,918.233,VALID,0,VALID,100,VALID,0.0169808,VALID,19.9424,VALID,219,VALID,0.298147,
2007-04-01, 01:22:00,VALID,918.239,VALID,0,VALID,100,VALID,0,VALID,19.9491,VALID,219,VALID,0.226372,
2007-04-01, 01:23:00,VALID,918.243,VALID,0,VALID,100,VALID,0.0169808,VALID,19.9526,VALID,219,VALID,0.309783,
2007-04-01, 01:24:00,VALID,918.249,VALID,0,VALID,100,VALID,0.0169808,VALID,19.9656,VALID,219,VALID,0.0935547,
2007-04-01, 01:25:00,VALID,918.259,VALID,0,VALID,100,VALID,0.0509425,VALID,19.9651,VALID,219,VALID,0.108445,
2007-04-01, 01:26:00,VALID,918.258,VALID,0,VALID,100,VALID,0,VALID,19.9719,VALID,219,VALID,0.115699,
2007-04-01, 01:27:00,VALID,918.268,VALID,0,VALID,100,VALID,0.0169808,VALID,19.9719,VALID,219,VALID,0.180432,
2007-04-01, 01:28:00,VALID,918.268,VALID,0,VALID,100,VALID,0.0169808,VALID,19.9681,VALID,219,VALID,0.0152778,
2007-04-01, 01:29:00,VALID,918.266,VALID,0,VALID,100,VALID,0.0509425,VALID,19.9646,VALID,219,VALID,0,
2007-04-01, 01:30:00,VALID,918.26,VALID,0,VALID,100,VALID,0.0169808,VALID,19.9743,VALID,219,VALID,0,
2007-04-01, 01:31:00,VALID,918.236,VALID,0,VALID,100,VALID,0,VALID,19.9878,VALID,219,VALID,0,
2007-04-01, 01:32:00,VALID,918.239,VALID,0,VALID,100,VALID,0,VALID,19.9878,VALID,219,VALID,0,
2007-04-01, 01:33:00,VALID,918.236,VALID,0,VALID,100,VALID,0.0169808,VALID,19.9873,VALID,219,VALID,0,
2007-04-01, 01:34:00,VALID,918.233,VALID,0,VALID,100,VALID,0,VALID,20.0108,VALID,219,VALID,0,
2007-04-01, 01:35:00,VALID,918.224,VALID,0,VALID,100,VALID,-0.0169808,VALID,20.014,VALID,219,VALID,0,
2007-04-01, 01:36:00,VALID,918.22,VALID,0,VALID,100,VALID,0.0169808,VALID,20.0268,VALID,219,VALID,0.118924,
2007-04-01, 01:37:00,VALID,918.218,VALID,0,VALID,100,VALID,0,VALID,20.0073,VALID,219,VALID,0.0123264,
2007-04-01, 01:38:00,VALID,918.213,VALID,0,VALID,100,VALID,0,VALID,19.9966,VALID,219,VALID,0.00234375,
2007-04-01, 01:39:00,VALID,918.21,VALID,0,VALID,100,VALID,0.0339617,VALID,20.0073,VALID,219,VALID,0,
2007-04-01, 01:40:00,VALID,918.219,VALID,0,VALID,100,VALID,0.0339617,VALID,19.9873,VALID,219,VALID,0,
2007-04-01, 01:41:00,VALID,918.213,VALID,0,VALID,100,VALID,0,VALID,19.9808,VALID,219,VALID,0,
2007-04-01, 01:42:00,VALID,918.213,VALID,0,VALID,100,VALID,0,VALID,19.9878,VALID,219,VALID,0.200707,
2007-04-01, 01:43:00,VALID,918.222,VALID,0,VALID,100,VALID,0,VALID,20.0043,VALID,219,VALID,0.363991,
2007-04-01, 01:44:00,VALID,918.211,VALID,0,VALID,100,VALID,-0.101885,VALID,20.0248,VALID,219,VALID,0.285417,
2007-04-01, 01:45:00,VALID,918.201,VALID,0,VALID,100,VALID,-0.101885,VALID,20.044,VALID,219,VALID,0.282738,
2007-04-01, 01:46:00,VALID,918.187,VALID,0,VALID,100,VALID,-0.0339617,VALID,20.0705,VALID,219,VALID,0.134411,
2007-04-01, 01:47:00,VALID,918.177,VALID,0,VALID,100,VALID,-0.0509425,VALID,20.0313,VALID,219,VALID,0.0243056,
2007-04-01, 01:48:00,VALID,918.16,VALID,0,VALID,100,VALID,-0.118866,VALID,20.0213,VALID,219,VALID,0.0202753,
2007-04-01, 01:49:00,VALID,918.152,VALID,0,VALID,100,VALID,-0.0849042,VALID,20.031,VALID,219,VALID,0.00304878,
2007-04-01, 01:50:00,VALID,918.146,VALID,0,VALID,100,VALID,-0.0509425,VALID,20.0403,VALID,219,VALID,0.299733,
2007-04-01, 01:51:00,VALID,918.124,VALID,0,VALID,100,VALID,-0.0679233,VALID,20.0635,VALID,219,VALID,0.731213,
2007-04-01, 01:52:00,VALID,918.112,VALID,0,VALID,100,VALID,-0.0679233,VALID,20.057,VALID,219,VALID,0.694949,
2007-04-01, 01:53:00,VALID,918.117,VALID,0,VALID,100,VALID,-0.0679233,VALID,20.0345,VALID,37,VALID,0.801448,
2007-04-01, 01:54:00,VALID,918.116,VALID,0,VALID,100,VALID,-0.0339617,VALID,19.9958,VALID,27,VALID,0.880605,
2007-04-01, 01:55:00,VALID,918.12,VALID,0,VALID,100,VALID,-0.0509425,VALID,19.9888,VALID,29,VALID,0.793713,
2007-04-01, 01:56:00,VALID,918.119,VALID,0,VALID,100,VALID,-0.0679233,VALID,19.9796,VALID,22,VALID,0.820503,
2007-04-01, 01:57:00,VALID,918.097,VALID,0,VALID,100,VALID,-0.0509425,VALID,19.9434,VALID,26,VALID,0.851744,
2007-04-01, 01:58:00,VALID,918.093,VALID,0,VALID,100,VALID,-0.101885,VALID,19.9462,VALID,33,VALID,0.634629,
2007-04-01, 01:59:00,VALID,918.085,VALID,0,VALID,100,VALID,-0.0679233,VALID,19.9462,VALID,32,VALID,0.693164,
2007-04-01, 02:00:00,VALID,918.064,VALID,0,VALID,100,VALID,-0.0339617,VALID,19.9167,VALID,33,VALID,0.84375,
2007-04-01, 02:01:00,VALID,918.066,VALID,0,VALID,100,VALID,-0.0679233,VALID,19.9204,VALID,33,VALID,0.648619,
2007-04-01, 02:02:00,VALID,918.056,VALID,0,VALID,100,VALID,-0.0509425,VALID,19.9037,VALID,33,VALID,0.770531,
2007-04-01, 02:03:00,VALID,918.067,VALID,0,VALID,100,VALID,-0.0509425,VALID,19.9042,VALID,22,VALID,0.849564,
2007-04-01, 02:04:00,VALID,918.064,VALID,0,VALID,100,VALID,-0.0679233,VALID,19.8783,VALID,14,VALID,0.739062,
2007-04-01, 02:05:00,VALID,918.077,VALID,0,VALID,100,VALID,-0.101885,VALID,19.882,VALID,12,VALID,0.335379,
2007-04-01, 02:06:00,VALID,918.081,VALID,0,VALID,100,VALID,-0.0509425,VALID,19.855,VALID,4,VALID,0.329241,
2007-04-01, 02:07:00,VALID,918.081,VALID,0,VALID,100,VALID,-0.101885,VALID,19.8653,VALID,3,VALID,0.0914634,
2007-04-01, 02:08:00,VALID,918.083,VALID,0,VALID,100,VALID,-0.0679233,VALID,19.885,VALID,3,VALID,0.00114329,
2007-04-01, 02:09:00,VALID,918.081,VALID,0,VALID,100,VALID,-0.101885,VALID,19.902,VALID,3,VALID,0.0117188,
2007-04-01, 02:10:00,VALID,918.072,VALID,0,VALID,100,VALID,-0.0849042,VALID,19.901,VALID,312,VALID,0.233041,
2007-04-01, 02:11:00,VALID,918.077,VALID,0,VALID,100,VALID,-0.0849042,VALID,19.9045,VALID,266,VALID,0.418069,
2007-04-01, 02:12:00,VALID,918.078,VALID,0,VALID,100,VALID,-0.0849042,VALID,19.882,VALID,255,VALID,0.46076,
2007-04-01, 02:13:00,VALID,918.084,VALID,0,VALID,100,VALID,-0.0849042,VALID,19.872,VALID,251,VALID,0.059375,
2007-04-01, 02:14:00,VALID,918.075,VALID,0,VALID,100,VALID,-0.0679233,VALID,19.8655,VALID,251,VALID,0.0786458,
2007-04-01, 02:15:00,VALID,918.08,VALID,0,VALID,100,VALID,-0.0849042,VALID,19.8623,VALID,251,VALID,0.0110085,
2007-04-01, 02:16:00,VALID,918.09,VALID,0,VALID,100,VALID,-0.0849042,VALID,19.8493,VALID,251,VALID,0.110937,
2007-04-01, 02:17:00,VALID,918.077,VALID,0,VALID,100,VALID,-0.101885,VALID,19.8461,VALID,251,VALID,0.210938,
2007-04-01, 02:18:00,VALID,918.079,VALID,0,VALID,100,VALID,-0.101885,VALID,19.8561,VALID,217,VALID,0.158854,
2007-04-01, 02:19:00,VALID,918.067,VALID,0,VALID,100,VALID,-0.0849042,VALID,19.8725,VALID,203,VALID,0.123798,
2007-04-01, 02:20:00,VALID,918.062,VALID,0,VALID,100,VALID,-0.101885,VALID,19.8625,VALID,203,VALID,0.021875,
2007-04-01, 02:21:00,VALID,918.034,VALID,0,VALID,100,VALID,-0.0849042,VALID,19.8361,VALID,203,VALID,0.000571646,
2007-04-01, 02:22:00,VALID,918.02,VALID,0,VALID,100,VALID,-0.118866,VALID,19.8333,VALID,203,VALID,0.00563227,
2007-04-01, 02:23:00,VALID,918.013,VALID,0,VALID,100,VALID,-0.0849042,VALID,19.8236,VALID,203,VALID,0,
2007-04-01, 02:24:00,VALID,917.999,VALID,0,VALID,100,VALID,-0.0849042,VALID,19.8273,VALID,203,VALID,0,
2007-04-01, 02:25:00,VALID,917.988,VALID,0,VALID,100,VALID,-0.0679233,VALID,19.8229,VALID,203,VALID,0.0321584,
2007-04-01, 02:26:00,VALID,917.99,VALID,0,VALID,100,VALID,-0.0849042,VALID,19.8363,VALID,203,VALID,0.262957,
2007-04-01, 02:27:00,VALID,917.976,VALID,0,VALID,100,VALID,-0.101885,VALID,19.8393,VALID,203,VALID,0.17016,
2007-04-01, 02:28:00,VALID,917.969,VALID,0,VALID,100,VALID,-0.0679233,VALID,19.862,VALID,203,VALID,0.324673,
2007-04-01, 02:29:00,VALID,917.951,VALID,0,VALID,100,VALID,0,VALID,19.8708,VALID,203,VALID,0.512005,
2007-04-01, 02:30:00,VALID,917.93,VALID,0,VALID,100,VALID,0,VALID,19.8583,VALID,222,VALID,0.440387,
2007-04-01, 02:31:00,VALID,917.916,VALID,0,VALID,100,VALID,0.0169808,VALID,19.8575,VALID,225,VALID,0.274479,
2007-04-01, 02:32:00,VALID,917.901,VALID,0,VALID,100,VALID,0.0169808,VALID,19.857,VALID,225,VALID,0.287246,
2007-04-01, 02:33:00,VALID,917.883,VALID,0,VALID,100,VALID,-0.0339617,VALID,19.8713,VALID,225,VALID,0.331759,
2007-04-01, 02:34:00,VALID,917.876,VALID,0,VALID,100,VALID,0,VALID,19.8613,VALID,225,VALID,0.102325,
2007-04-01, 02:35:00,VALID,917.873,VALID,0,VALID,100,VALID,0.0169808,VALID,19.858,VALID,225,VALID,0.00228659,
2007-04-01, 02:36:00,VALID,917.87,VALID,0,VALID,100,VALID,0,VALID,19.8645,VALID,225,VALID,0,
2007-04-01, 02:37:00,VALID,917.862,VALID,0,VALID,100,VALID,0,VALID,19.871,VALID,225,VALID,0.00585938,
2007-04-01, 02:38:00,VALID,917.841,VALID,0,VALID,100,VALID,-0.0169808,VALID,19.8738,VALID,225,VALID,0.0234375,
2007-04-01, 02:39:00,VALID,917.829,VALID,0,VALID,100,VALID,0,VALID,19.8803,VALID,225,VALID,0,
2007-04-01, 02:40:00,VALID,917.808,VALID,0,VALID,100,VALID,-0.0169808,VALID,19.881,VALID,225,VALID,0,
2007-04-01, 02:41:00,VALID,917.793,VALID,0,VALID,100,VALID,0,VALID,19.8808,VALID,225,VALID,0,
2007-04-01, 02:42:00,VALID,917.796,VALID,0,VALID,100,VALID,0.0169808,VALID,19.8835,VALID,225,VALID,0.0146723,
2007-04-01, 02:43:00,VALID,917.785,VALID,0,VALID,100,VALID,0,VALID,19.8965,VALID,225,VALID,0.0479911,
2007-04-01, 02:44:00,VALID,917.776,VALID,0,VALID,100,VALID,0.0339617,VALID,19.9159,VALID,225,VALID,0.180689,
2007-04-01, 02:45:00,VALID,917.779,VALID,0,VALID,100,VALID,0,VALID,19.9289,VALID,225,VALID,0.413885,
2007-04-01, 02:46:00,VALID,917.772,VALID,0,VALID,100,VALID,0,VALID,19.9414,VALID,225,VALID,0.302778,
2007-04-01, 02:47:00,VALID,917.769,VALID,0,VALID,100,VALID,0,VALID,19.9549,VALID,225,VALID,0.415128,
2007-04-01, 02:48:00,VALID,917.772,VALID,0,VALID,100,VALID,-0.0169808,VALID,19.9681,VALID,225,VALID,0.0261009,
2007-04-01, 02:49:00,VALID,917.776,VALID,0,VALID,100,VALID,0,VALID,19.9684,VALID,225,VALID,0.0129616,
2007-04-01, 02:50:00,VALID,917.757,VALID,0,VALID,100,VALID,0,VALID,19.9716,VALID,225,VALID,0,
2007-04-01, 02:51:00,VALID,917.766,VALID,0,VALID,100,VALID,0,VALID,19.9481,VALID,225,VALID,0,
2007-04-01, 02:52:00,VALID,917.772,VALID,0,VALID,100,VALID,0,VALID,19.9422,VALID,225,VALID,0.0212573,
2007-04-01, 02:53:00,VALID,917.762,VALID,0,VALID,100,VALID,0.0169808,VALID,19.9556,VALID,225,VALID,0.0774148,
2007-04-01, 02:54:00,VALID,917.765,VALID,0,VALID,100,VALID,0,VALID,19.9451,VALID,225,VALID,0.0565476,
2007-04-01, 02:55:00,VALID,917.774,VALID,0,VALID,100,VALID,0.0169808,VALID,19.9614,VALID,225,VALID,0.0111607,
2007-04-01, 02:56:00,VALID,917.764,VALID,0,VALID,100,VALID,0.0169808,VALID,19.9741,VALID,225,VALID,0,
2007-04-01, 02:57:00,VALID,917.77,VALID,0,VALID,100,VALID,0.0169808,VALID,19.9811,VALID,225,VALID,0,
2007-04-01, 02:58:00,VALID,917.752,VALID,0,VALID,100,VALID,0,VALID,19.9716,VALID,225,VALID,0,
2007-04-01, 02:59:00,VALID,917.73,VALID,0,VALID,100,VALID,-0.0679233,VALID,19.9591,VALID,225,VALID,0,
2007-04-01, 03:00:00,VALID,917.727,VALID,0,VALID,100,VALID,-0.0339617,VALID,19.9761,VALID,225,VALID,0.0214844,
2007-04-01, 03:01:00,VALID,917.711,VALID,0,VALID,100,VALID,-0.0509425,VALID,19.9759,VALID,225,VALID,0.00852273,
2007-04-01, 03:02:00,VALID,917.694,VALID,0,VALID,100,VALID,-0.101885,VALID,19.9761,VALID,225,VALID,0.0251953,
2007-04-01, 03:03:00,VALID,917.667,VALID,0,VALID,100,VALID,-0.0679233,VALID,19.9888,VALID,225,VALID,0,
2007-04-01, 03:04:00,VALID,917.663,VALID,0,VALID,100,VALID,-0.101885,VALID,19.9729,VALID,225,VALID,0.000390625,
2007-04-01, 03:05:00,VALID,917.665,VALID,0,VALID,100,VALID,-0.0849042,VALID,19.9564,VALID,225,VALID,0.0117188,
2007-04-01, 03:06:00,VALID,917.655,VALID,0,VALID,100,VALID,-0.0679233,VALID,19.9529,VALID,225,VALID,0,
2007-04-01, 03:07:00,VALID,917.643,VALID,0,VALID,100,VALID,-0.0849042,VALID,19.9664,VALID,225,VALID,0,
2007-04-01, 03:08:00,VALID,917.625,VALID,0,VALID,100,VALID,-0.0849042,VALID,19.9699,VALID,225,VALID,0.0555959,
2007-04-01, 03:09:00,VALID,917.624,VALID,0,VALID,100,VALID,-0.0849042,VALID,19.9696,VALID,225,VALID,0.426525,
2007-04-01, 03:10:00,VALID,917.606,VALID,0,VALID,100,VALID,-0.101885,VALID,19.9694,VALID,210,VALID,0.520579,
2007-04-01, 03:11:00,VALID,917.598,VALID,0,VALID,100,VALID,-0.0509425,VALID,19.9694,VALID,198,VALID,0.449591,
2007-04-01, 03:12:00,VALID,917.583,VALID,0,VALID,100,VALID,-0.0509425,VALID,19.9629,VALID,198,VALID,0.314918,
2007-04-01, 03:13:00,VALID,917.558,VALID,0,VALID,100,VALID,-0.0509425,VALID,19.9729,VALID,92,VALID,0.771763,
2007-04-01, 03:14:00,VALID,917.544,VALID,0,VALID,100,VALID,0.0339617,VALID,19.9811,VALID,47,VALID,0.501635,
2007-04-01, 03:15:00,VALID,917.531,VALID,0,VALID,100,VALID,0.0339617,VALID,19.9711,VALID,41,VALID,0.185417,
2007-04-01, 03:16:00,VALID,917.507,VALID,0,VALID,100,VALID,0.0169808,VALID,19.9646,VALID,41,VALID,0.177269,
2007-04-01, 03:17:00,VALID,917.504,VALID,0,VALID,100,VALID,0.0339617,VALID,19.9549,VALID,41,VALID,0.00218023,
2007-04-01, 03:18:00,VALID,917.488,VALID,0,VALID,100,VALID,0.0169808,VALID,19.9284,VALID,41,VALID,0.102865,
2007-04-01, 03:19:00,VALID,917.463,VALID,0,VALID,100,VALID,0.0169808,VALID,19.9319,VALID,40,VALID,0.399503,
2007-04-01, 03:20:00,VALID,917.436,VALID,0,VALID,100,VALID,0,VALID,19.9194,VALID,37,VALID,0.370998,
2007-04-01, 03:21:00,VALID,917.428,VALID,0,VALID,100,VALID,0.0169808,VALID,19.8803,VALID,28,VALID,0.371185,
2007-04-01, 03:22:00,VALID,917.422,VALID,0,VALID,100,VALID,0.0169808,VALID,19.8575,VALID,18,VALID,0.122093,
2007-04-01, 03:23:00,VALID,917.407,VALID,0,VALID,100,VALID,0.0339617,VALID,19.8446,VALID,18,VALID,0.0137153,
2007-04-01, 03:24:00,VALID,917.387,VALID,0,VALID,100,VALID,0.0339617,VALID,19.8343,VALID,18,VALID,0,
2007-04-01, 03:25:00,VALID,917.388,VALID,0,VALID,100,VALID,0.0339617,VALID,19.8411,VALID,18,VALID,0,
2007-04-01, 03:26:00,VALID,917.373,VALID,0,VALID,100,VALID,0.0509425,VALID,19.8481,VALID,18,VALID,0.0531994,
2007-04-01, 03:27:00,VALID,917.377,VALID,0,VALID,100,VALID,0.0339617,VALID,19.8605,VALID,18,VALID,0.16806,
2007-04-01, 03:28:00,VALID,917.38,VALID,0,VALID,100,VALID,0.0169808,VALID,19.9137,VALID,18,VALID,0.0800347,
2007-04-01, 03:29:00,VALID,917.398,VALID,0,VALID,100,VALID,-0.0339617,VALID,19.9107,VALID,18,VALID,0.00342988,
2007-04-01, 03:30:00,VALID,917.396,VALID,0,VALID,100,VALID,-0.0339617,VALID,19.9142,VALID,18,VALID,0,
2007-04-01, 03:31:00,VALID,917.398,VALID,0,VALID,100,VALID,-0.0679233,VALID,19.8952,VALID,18,VALID,0,
2007-04-01, 03:32:00,VALID,917.395,VALID,0,VALID,100,VALID,-0.0849042,VALID,19.8723,VALID,18,VALID,0,
2007-04-01, 03:33:00,VALID,917.384,VALID,0,VALID,100,VALID,-0.0849042,VALID,19.8588,VALID,18,VALID,0,
2007-04-01, 03:34:00,VALID,917.37,VALID,0,VALID,100,VALID,-0.0679233,VALID,19.8695,VALID,18,VALID,0.0449695,
2007-04-01, 03:35:00,VALID,917.354,VALID,0,VALID,100,VALID,-0.101885,VALID,19.8793,VALID,18,VALID,0.0188643,
2007-04-01, 03:36:00,VALID,917.327,VALID,0,VALID,100,VALID,-0.101885,VALID,19.8823,VALID,18,VALID,0.112723,
2007-04-01, 03:37:00,VALID,917.328,VALID,0,VALID,100,VALID,-0.101885,VALID,19.8985,VALID,18,VALID,0.300977,
2007-04-01, 03:38:00,VALID,917.307,VALID,0,VALID,100,VALID,-0.101885,VALID,19.918,VALID,18,VALID,0.421875,
2007-04-01, 03:39:00,VALID,917.316,VALID,0,VALID,100,VALID,-0.0679233,VALID,19.9469,VALID,18,VALID,0.19803,
2007-04-01, 03:40:00,VALID,917.336,VALID,0,VALID,100,VALID,-0.0679233,VALID,19.9499,VALID,18,VALID,0.335938,
2007-04-01, 03:41:00,VALID,917.336,VALID,0,VALID,100,VALID,-0.0679233,VALID,19.9467,VALID,18,VALID,0.332919,
2007-04-01, 03:42:00,VALID,917.371,VALID,0,VALID,100,VALID,-0.0679233,VALID,19.9529,VALID,23,VALID,0.556548,
2007-04-01, 03:43:00,VALID,917.378,VALID,0,VALID,100,VALID,-0.0679233,VALID,19.9699,VALID,32,VALID,0.691501,